Regional Weather Roundup
Issued by NWS

Home | Current Version | Previous Version | Graphics & Text | Print | Product List | Glossary Off
Versions: 1 2 3 4 5 6 7 8 9 10 11 12 13 14 15 16 17 18 19 20 21 22 23 24 25 26 27 28 29 30 31 32 33 34 35 36 37 38 39 40 41 42 43 44 45 46 47 48 49 50

000
ASUS43 KMKX 051800
RWRWI

WISCONSIN REGIONAL WEATHER ROUNDUP
NATIONAL WEATHER SERVICE MILWAUKEE/SULLIVAN WI
100 PM CDT THU MAY 05 2016

NOTE: "FAIR" INDICATES FEW OR NO CLOUDS BELOW 12,000 FEET WITH NO
SIGNIFICANT WEATHER AND/OR OBSTRUCTIONS TO VISIBILITY.

WIZ001-002-006>008-014>016-023>028-051900-
NORTHWEST WISCONSIN

CITY           SKY/WX    TMP DP  RH WIND       PRES   REMARKS
SUPERIOR ARPT  SUNNY     67  37  33 W15       29.94F
ASHLAND        MOSUNNY   70  35  27 W9G17     29.94F
6HR MIN TEMP:  33; 6HR MAX TEMP:  70;

HAYWARD        SUNNY     65  30  27 SW15      29.97F
6HR MIN TEMP:  33; 6HR MAX TEMP:  65;

SIREN          DRIZZLE   57  37  47 SW6       30.00F
CUMBERLAND     SUNNY     61  28  29 SW8G16    30.02F
RICE LAKE      MOSUNNY   63  28  26 W12       30.03F
CHETEK         MOSUNNY   64  35  35 SW9       30.02F
LADYSMITH      SUNNY     62  34  35 SW10      30.03F
EAU CLAIRE     NOT AVBL
MENOMONIE      PTSUNNY   66  33  29 W7        30.03F
NEW RICHMOND   PTSUNNY   61  32  33 SW13      30.03F
OSCEOLA        CLOUDY    64  34  32 SW10      30.05F
$$

WIZ003>005-009-010-017-018-051900-
NORTH CENTRAL WISCONSIN

CITY           SKY/WX    TMP DP  RH WIND       PRES   REMARKS
MANITOWISH WTR SUNNY     60  30  31 W8        29.98F
ARBOR VITAE    SUNNY     62  27  26 SW8       29.98F
WOODRUFF       SUNNY     62  27  26 SW8       29.98F
RHINELANDER    SUNNY     62  24  23 VRB3      29.99F
6HR MIN TEMP:  34; 6HR MAX TEMP:  63;

EAGLE RIVER    SUNNY     60  24  24 W8        29.97F
LAND O LAKES   SUNNY     62  25  24 S9        29.98F
PHILLIPS       MOSUNNY   59  32  36 SW7       30.00F
TOMAHAWK       SUNNY     61  27  27 W5        30.01F
MEDFORD        SUNNY     58  34  40 W8        30.02F
MERRILL        SUNNY     61  31  31 SW8       30.01F
$$

WIZ029-030-035-036-043>047-051900-
CENTRAL WISCONSIN

CITY           SKY/WX    TMP DP  RH WIND       PRES   REMARKS
WAUSAU         SUNNY     63  31  30 W7        29.99F
6HR MIN TEMP:  40; 6HR MAX TEMP:  64;

MOSINEE        SUNNY     61  34  36 NW6       30.03F
MARSHFIELD     SUNNY     61  29  29 VRB7      30.02F
6HR MIN TEMP:  40; 6HR MAX TEMP:  62;

STEVENS POINT  SUNNY     58  30  33 W8        30.02F
WAUPACA        SUNNY     61  36  39 CALM      30.03F
WAUTOMA        NOT AVBL
WISC RAPIDS    SUNNY     62  27  26 VRB5      30.03F
6HR MIN TEMP:  39; 6HR MAX TEMP:  63;

CAMP DOUGLAS   NOT AVBL
$$

WIZ011>013-019>022-031-037>040-048>050-051900-
NORTHEAST WISCONSIN

CITY           SKY/WX    TMP DP  RH WIND       PRES   REMARKS
ANTIGO         SUNNY     58  31  35 CALM      30.01F
SHAWANO        SUNNY     59  35  40 CALM      30.02F
OCONTO         SUNNY     55  38  54 S7        30.01F
STURGEON BAY   SUNNY     52  36  54 W7        30.04F
6HR MIN TEMP:  39; 6HR MAX TEMP:  52;

GREEN BAY      SUNNY     58  40  51 NW7       30.02F
6HR MIN TEMP:  39; 6HR MAX TEMP:  59;

MANITOWOC      NOT AVBL
APPLETON       SUNNY     55  36  47 VRB3      30.01F
CLINTONVILLE   SUNNY     59  36  41 S3        30.02F
OSHKOSH        SUNNY     58  38  47 N8        30.02F
6HR MIN TEMP:  39; 6HR MAX TEMP:  58;

$$

WIZ032>034-041-042-053>061-051900-
SOUTHWEST WISCONSIN

CITY           SKY/WX    TMP DP  RH WIND       PRES   REMARKS
LA CROSSE      SUNNY     62  33  33 NW5       30.05F
6HR MIN TEMP:  42; 6HR MAX TEMP:  63;

SPARTA         SUNNY     62  32  32 W9        30.05F
VIROQUA        SUNNY     59  32  36 CALM      30.06F
BOSCOBEL       SUNNY     65  36  34 VRB3      30.04F
6HR MIN TEMP:  39; 6HR MAX TEMP:  65;

PRAIRIE DU CHI SUNNY     61  31  31 NW10      30.06F
PLATTEVILLE    SUNNY     59  38  45 N6        30.05F
$$

WIZ056-057-062-063-064-067-068-051900-
SOUTH CENTRAL WISCONSIN

CITY           SKY/WX    TMP DP  RH WIND       PRES   REMARKS
REEDSBURG      SUNNY     58  37  45 CALM      30.04F
BARABOO/DELLS  SUNNY     60  33  35 NW5       30.04F
LONE ROCK      NOT AVBL
MINERAL POINT  SUNNY     61  36  39 NW6       30.04F
MADISON        SUNNY     60  36  40 VRB5      30.02F
6HR MIN TEMP:  38; 6HR MAX TEMP:  61;

MIDDLETON      SUNNY     59  37  43 N7        30.04F
WATERTOWN      SUNNY     58  40  51 N9        30.03S
MONROE         SUNNY     57  37  47 NW5       30.04F
JANESVILLE     SUNNY     61  37  41 NE7       30.02F
$$

WIZ051-052-058>065-066-070>072-051900-
SOUTHEAST WISCONSIN

CITY           SKY/WX    TMP DP  RH WIND       PRES   REMARKS
MILWAUKEE      SUNNY     53  39  59 NE12      30.03F
6HR MIN TEMP:  42; 6HR MAX TEMP:  54;

WAUKESHA       SUNNY     57  37  47 W7        30.02F
MILWAUKEE/TIMM SUNNY     57  37  47 NE7       30.03S
RACINE         SUNNY     54  39  57 N15       30.03F
6HR MIN TEMP:  42; 6HR MAX TEMP:  54;

BURLINGTON     SUNNY     58  38  47 N7        30.01F
KENOSHA        SUNNY     59  41  51 N10G16    30.01F
6HR MIN TEMP:  41; 6HR MAX TEMP:  59;

FOND DU LAC    SUNNY     57  39  51 CALM      30.02F
6HR MIN TEMP:  39; 6HR MAX TEMP:  57;

SHEBOYGAN      SUNNY     56  43  61 E9        30.01F
6HR MIN TEMP:  38; 6HR MAX TEMP:  56;

WEST BEND      SUNNY     57  37  47 CALM      30.01F
JUNEAU         SUNNY     56  40  53 N5        30.04F
$$

LSZ147-162-051900-
LAKE SUPERIOR

STATION/POSITION TIME  TEMP    WIND        PRES    WAVE
                       AIR SEA DIR/SP/G            HT/PER
                 (UTC) (F)     (DEG/KT/KT) (MB)    (FT/S)
W MID LAKE BUOY  1650   40 37  210/  8/ 10 1015.5F   1
DEVILS ISLAND    1700   49      CALM  /  2 1014.6F
PORT WING        1620   43     300/  7/  9 1015.2S
SAXON HARBOR     1700   64     180/  6/ 12 1014.2F
$$

LMZ867-665-643>646-051900-
LAKE MICHIGAN

STATION/POSITION TIME  TEMP    WIND        PRES    WAVE
                       AIR SEA DIR/SP/G            HT/PER
                 (UTC) (F)     (DEG/KT/KT) (MB)    (FT/S)
CHAMBERS ISLAND  1700   45      70/  5/  7 1016.9F
N MID LAKE BUOY  1650   39 39  280/  6/  8 1016.9S   1/ 3
NORTHPORT PIER   1700   42     330/  3/  5 1016.9F
ALGOMA LAKESHORE 1715          100/  8/  9   N/A
KEWAUNEE LAKESHO 1700   46      50/  4/  7 1016.3F
SHEBOYGAN LAKESH 1700   42      30/ 10/ 11 1017.9F
PORT WASHINGTON  1700   47      50/  9/ 11 1017.9
S MID LAKE BUOY  1650   40 40  360/ 16/ 17 1016.0R   4/ 6
KENOSHA   LAKESH 1700   47      20/ 14/ 15 1016.6F
$$

TC  - TEMPERATURE IN CELSIUS
VSB - VISIBILITY IN STATUTE MILES
WCI - WIND CHILL INDEX
HX  - HEAT INDEX





USA.gov is the U.S. government's official web portal to all federal, state and local government web resources and services.